Regional Weather Roundup
Issued by NWS Sioux Falls, SD

Current Version | Previous Version | Text Only | Print | Product List | Glossary On
Versions: 1 2 3 4 5 6 7 8 9 10 11 12 13 14 15 16 17 18 19 20 21 22 23 24 25 26 27 28 29 30 31 32 33 34 35 36 37 38 39 40 41 42 43 44 45 46 47 48 49 50
000
ASUS43 KFSD 040610
RWRFSD

WEATHER ROUNDUP FOR SE SOUTH DAKOTA/SW MINNESOTA/NW IOWA
NATIONAL WEATHER SERVICE SIOUX FALLS SD
100 AM CDT TUE OCT 04 2022

NOTE: "FAIR" INDICATES FEW OR NO CLOUDS BELOW 12,000 FEET WITH NO
SIGNIFICANT WEATHER AND OR OBSTRUCTIONS TO VISIBILITY.


SDZ038>040-050-052>070-040700-
SOUTHEAST SOUTH DAKOTA

CITY           SKY/WX    TMP DP  RH WIND       PRES   REMARKS
BROOKINGS      LGT RAIN N/A N/A N/A W5        30.16R
CHAMBERLAIN    CLOUDY    52  52 100 CALM      30.11F
6HR MIN TEMP:  50; 6HR MAX TEMP:  57;

HURON          CLOUDY    58  55  90 SE7       30.11F
6HR MIN TEMP:  58; 6HR MAX TEMP:  63; 6HR PCP:  0.07;

MADISON        CLOUDY    57  57 100 CALM      30.15F
MITCHELL       CLOUDY    59  55  87 SE6       30.13S
6HR MIN TEMP:  59; 6HR MAX TEMP:  65; 6HR PCP: TRACE;

SIOUX FALLS    MOCLDY    62  50  64 CALM      30.15F
6HR MIN TEMP:  62; 6HR MAX TEMP:  76;

WINNER         MOCLDY    55  52  89 SW7       30.11F
YANKTON        LGT RAIN  60  55  83 SE3       30.17R
$$

MNZ071-072-080-081-089-090-097-098-040700-
SOUTHWEST MINNESOTA

CITY           SKY/WX    TMP DP  RH WIND       PRES   REMARKS
FAIRMONT       MOCLDY    58  48  69 S9        30.19S
JACKSON        CLOUDY    61  46  59 S7        30.18F
LUVERNE        MOCLDY    55  45  67 CALM      30.17F
MARSHALL       MOCLDY    65  44  46 CALM      30.15S
6HR MIN TEMP:  63; 6HR MAX TEMP:  72;

MONTEVIDEO     DRIZZLE   63  46  55 SW3       30.15R
REDWOOD FALLS  MOCLDY    58  43  57 SE6       30.15S
TRACY          MOCLDY    64  41  42 SW10      30.16R
WINDOM         CLOUDY    61  46  59 S5        30.16F
WORTHINGTON    MOCLDY    62  45  53 S10       30.17S
$$

IAZ001>003-012>014-020>022-031-032-NEZ013-014-SDZ071-040700-
NORTHWEST IOWA

CITY           SKY/WX    TMP DP  RH WIND       PRES   REMARKS
CHEROKEE       MOCLDY    57  45  63 CALM      30.17F
DENISON        MOCLDY    63  48  59 S9G15     30.19S
ESTHERVILLE    CLOUDY    59  47  64 S7        30.18F
LE MARS        MOCLDY    59  45  58 S6        30.14F
MAURICE        MOCLDY    61  45  55 S9        30.14S
SHELDON        MOCLDY    61  45  55 S10       30.14S
SIOUX CITY     MOCLDY    55  44  66 E7        30.15S
6HR MIN TEMP:  55; 6HR MAX TEMP:  75;

SPENCER        MOCLDY    62  45  53 S9        30.18F
6HR MIN TEMP:  57; 6HR MAX TEMP:  71;

STORM LAKE     MOCLDY    54  46  76 SE9       30.19S
$$

ABBREVIATIONS USED IN REMARKS
   TC - TEMPERATURE IN CELSIUS
  WCI - WIND CHILL INDEX
   HX - HEAT INDEX
  VSB - VISIBILITY




USA.gov is the U.S. government's official web portal to all federal, state and local government web resources and services.